DateTimeUTC,F1_A11,F1_S11,BsB_S11,BsG_S11,BsR_S11,BbsB_S11,BbsG_S11,BbsR_S11,BaB_A11,BaG_A11,BaR_A11,Tu_S11,T_S11,Uu_S11,U_S11,P_S11,T1_A11
2021-02-06T12:00:00Z,00000200,21000000,,,,,,,0000.16,-000.05,0000.36,15.5,22.8,,00.0,0652.3,30.8
2021-02-06T12:01:00Z,00000200,21000000,,,,,,,-000.26,-000.15,-000.18,15.5,22.8,,00.0,0652.3,30.8
2021-02-06T12:02:00Z,00000200,21000000,,,,,,,0000.23,0000.20,0000.21,15.5,22.8,,00.0,0652.3,30.9
2021-02-06T12:03:00Z,00000200,61000000,,,,,,,0000.03,0000.78,0000.21,15.5,22.8,,00.0,0652.3,30.9
2021-02-06T12:04:00Z,00000200,41000000,-000.04,0000.68,-000.09,-000.45,0000.08,-000.09,0000.51,-000.15,0000.26,15.8,22.7,,00.0,0653.2,30.9
2021-02-06T12:05:00Z,00000200,01000000,0000.44,0000.38,0000.31,-000.14,-000.05,-000.04,0000.02,-000.22,-000.50,15.9,22.7,,00.0,0653.3,30.9
2021-02-06T12:06:00Z,00000200,01000000,0000.22,0000.10,0000.00,0000.46,0000.07,0000.03,-000.02,0000.70,0000.28,15.9,22.7,,00.0,0653.3,30.9
2021-02-06T12:07:00Z,00000200,01000000,-000.20,0000.39,0000.05,0000.08,0000.12,-000.10,-000.38,-000.54,-000.16,15.9,22.7,,00.0,0653.3,30.9
2021-02-06T12:08:00Z,00000200,01000000,0000.23,0000.42,0000.03,0000.09,0000.23,0000.17,0000.14,-000.32,-000.19,15.8,22.6,,00.0,0653.4,30.8
2021-02-06T12:09:00Z,00000200,01000000,-000.07,0000.58,-000.05,0000.25,-000.01,-000.06,0000.01,0000.11,0000.23,15.8,22.6,,00.0,0653.4,30.8
2021-02-06T12:10:00Z,00000200,01000000,0000.62,0000.26,-000.08,0000.34,0000.11,-000.13,-000.16,0000.26,0000.25,15.7,22.6,,00.0,0653.4,30.8
2021-02-06T12:11:00Z,00000200,01000000,0000.48,0000.42,0000.05,-000.16,-000.18,0000.04,-000.04,-000.13,-000.55,15.7,22.5,,00.0,0653.4,30.8
2021-02-06T12:12:00Z,00000200,01000000,0000.26,0000.57,-000.01,0000.18,0000.01,0000.03,-000.02,-000.33,-000.16,15.6,22.5,,00.0,0653.5,30.8
2021-02-06T12:13:00Z,00000200,01000000,0000.27,0000.34,0000.04,0000.37,0000.20,0000.12,0000.02,0000.07,0000.32,15.6,22.5,,00.0,0653.5,30.8
2021-02-06T12:14:00Z,00000200,01000000,0000.36,0000.36,-000.09,0000.06,-000.01,-000.03,0000.13,-000.14,-000.04,15.5,22.5,,00.0,0653.5,30.8
2021-02-06T12:15:00Z,00000200,01000000,0000.24,0000.53,0000.31,0000.09,0000.20,-000.02,-000.16,0000.06,0000.06,15.5,22.4,,00.0,0653.5,30.8
2021-02-06T12:16:00Z,00000200,01000000,0000.66,0000.25,0000.23,0000.39,0000.07,0000.05,0000.65,0000.41,0000.12,15.5,22.4,,00.0,0653.5,30.8
2021-02-06T12:17:00Z,00000200,01000000,0000.47,0000.94,0000.21,0000.25,0000.10,0000.15,0000.11,0000.59,0000.23,15.6,22.5,,00.0,0653.5,30.8
2021-02-06T12:18:00Z,00000200,01000000,0000.52,0000.75,-000.15,0000.18,-000.02,-000.08,0000.09,0000.19,0000.18,15.7,22.5,,00.0,0653.4,30.8
2021-02-06T12:19:00Z,00000200,01000000,0000.00,0000.48,0000.33,0000.10,-000.07,-000.14,0000.26,-000.10,0000.18,15.7,22.5,,00.0,0653.5,30.8
2021-02-06T12:20:00Z,00000200,01000000,0000.99,0000.50,-000.03,0000.43,0000.27,-000.00,0000.09,-000.06,-000.14,15.6,22.5,,00.0,0653.5,30.8
2021-02-06T12:21:00Z,00000200,01000000,0000.32,0000.25,-000.05,0000.42,0000.08,0000.21,-000.42,-000.04,-000.32,15.6,22.4,,00.0,0653.5,30.8
2021-02-06T12:22:00Z,00000200,01000000,0000.92,0000.44,0000.27,0000.25,0000.16,0000.14,0000.00,-000.37,0000.24,15.5,22.4,,00.0,0653.5,30.8
2021-02-06T12:23:00Z,00000200,01000000,0000.62,0000.33,0000.25,-000.04,0000.19,0000.13,-000.04,0000.26,0000.05,15.5,22.4,,00.0,0653.6,30.8
2021-02-06T12:24:00Z,00000200,01000000,-000.21,0000.10,0000.18,-000.15,0000.21,0000.01,-000.31,-000.28,-000.04,15.5,22.4,,00.0,0653.7,30.8
2021-02-06T12:25:00Z,00000200,01000000,0000.58,0000.29,-000.07,0000.20,0000.13,-000.11,0000.10,-000.02,-000.18,15.4,22.3,,00.0,0653.8,30.8
2021-02-06T12:26:00Z,00000200,01000000,0000.98,0000.33,0000.01,0000.12,0000.20,-000.27,-000.42,0000.03,-000.20,15.4,22.3,,00.0,0653.8,30.8
2021-02-06T12:27:00Z,00000200,01000000,0000.47,0000.20,0000.09,0000.36,0000.05,-000.07,0000.04,-000.33,0000.03,15.3,22.3,,00.0,0653.8,30.8
2021-02-06T12:28:00Z,00000200,01000000,0000.48,0000.62,-000.03,0000.31,-000.20,0000.06,-000.35,-000.43,-000.18,15.2,22.3,,00.0,0653.8,30.8
2021-02-06T12:29:00Z,00000200,01000000,0000.81,0000.20,0000.10,0000.33,-000.00,0000.22,-000.03,-000.40,-000.14,15.2,22.2,,00.0,0653.8,30.8
2021-02-06T12:30:00Z,00000200,01000000,-000.11,0000.53,0000.10,0000.41,-000.01,-000.04,0000.21,0000.13,0000.25,15.2,22.2,,00.0,0653.7,30.8
2021-02-06T12:31:00Z,00000200,01000000,0000.19,0000.37,-000.12,-000.39,0000.23,0000.37,0000.07,0000.62,-000.17,15.2,22.2,,00.0,0653.7,30.8
2021-02-06T12:32:00Z,00000200,01000000,0000.86,0000.29,0000.02,-000.08,0000.22,0000.03,0000.23,0000.23,0000.22,15.3,22.2,,00.0,0653.7,30.8
2021-02-06T12:33:00Z,00000200,01000000,-000.22,0000.45,-000.03,0000.31,0000.23,0000.06,-000.08,0000.03,0000.32,15.4,22.3,,00.0,0653.7,30.8
2021-02-06T12:34:00Z,00000200,01000000,0000.85,0000.35,-000.08,-000.10,0000.21,-000.16,0000.46,0000.15,-000.10,15.4,22.3,,00.0,0653.7,30.8
2021-02-06T12:35:00Z,00000200,01000000,0000.48,0000.12,-000.04,0000.40,0000.19,0000.17,0000.62,0000.48,0000.66,15.5,22.3,,00.0,0653.7,30.8
2021-02-06T12:36:00Z,00000200,01000000,0000.52,0000.33,0000.00,0000.65,0000.00,-000.31,0000.04,0000.35,0000.29,15.6,22.4,,00.0,0653.6,30.8
2021-02-06T12:37:00Z,00000200,01000000,0000.37,0000.31,0000.17,-000.09,-000.13,0000.01,0000.25,0000.23,0000.04,15.7,22.4,,00.0,0653.6,30.8
2021-02-06T12:38:00Z,00000200,01000000,0000.21,0000.24,0000.25,0000.13,0000.02,0000.18,-000.05,-000.15,0000.03,15.7,22.4,,00.0,0653.6,30.8
2021-02-06T12:39:00Z,00000200,01000000,-000.27,0000.51,0000.21,0000.66,-000.14,-000.23,0000.40,0000.33,0000.17,15.7,22.4,,00.0,0653.6,30.8
2021-02-06T12:40:00Z,00000200,01000000,0000.05,0000.26,0000.24,-000.24,0000.04,-000.04,0000.08,-000.10,-000.34,15.7,22.4,,00.0,0653.7,30.8
2021-02-06T12:41:00Z,00000200,01000000,0000.69,0000.32,0000.00,0000.28,0000.18,0000.04,-000.33,-000.27,0000.06,15.6,22.4,,00.0,0653.7,30.8
2021-02-06T12:42:00Z,00000200,01000000,0000.39,0000.33,-000.23,0000.08,0000.25,0000.02,0000.01,0000.21,-000.01,15.5,22.4,,00.0,0653.7,30.8
2021-02-06T12:43:00Z,00000200,01000000,0000.83,0000.43,0000.04,0000.13,0000.12,0000.18,-000.00,0000.06,-000.18,15.5,22.3,,00.0,0653.7,30.8
2021-02-06T12:44:00Z,00000200,01000000,0000.49,0000.83,-000.02,0000.27,0000.30,0000.08,0000.07,-000.14,0000.17,15.4,22.3,,00.0,0653.6,30.8
2021-02-06T12:45:00Z,00000200,01000000,-000.16,0000.38,0000.09,-000.46,-000.03,-000.24,0000.34,0000.45,0000.35,15.4,22.3,,00.0,0653.6,30.8
2021-02-06T12:46:00Z,00000200,01000000,0001.22,0000.38,-000.03,0000.14,0000.20,-000.28,0000.44,0000.35,0000.21,15.5,22.3,,00.0,0653.6,30.8
2021-02-06T12:47:00Z,00000200,01000000,0001.10,0000.49,-000.19,0000.14,-000.01,0000.05,-000.10,0000.12,0000.33,15.5,22.3,,00.0,0653.6,30.8
2021-02-06T12:48:00Z,00000200,01000000,0001.07,0000.35,0000.11,0000.56,0000.11,0000.17,0000.28,0000.18,-000.14,15.6,22.3,,00.0,0653.6,30.8
2021-02-06T12:49:00Z,00000200,01000000,-000.15,0000.28,-000.30,-000.12,0000.06,-000.09,-000.12,0000.04,-000.12,15.7,22.4,,00.0,0653.7,30.8
2021-02-06T12:50:00Z,00000200,01000000,0000.34,0000.71,0000.20,-000.12,0000.18,0000.01,0000.05,-000.40,0000.52,15.7,22.4,,00.0,0653.7,30.8
2021-02-06T12:51:00Z,00000200,01000000,0000.46,0000.17,-000.28,-000.08,-000.04,0000.19,-000.21,0000.28,-000.39,15.8,22.5,,00.0,0653.7,30.9
2021-02-06T12:52:00Z,00000200,01000000,0001.57,0000.26,0000.09,0000.09,0000.01,0000.09,0000.08,0000.25,0000.22,15.8,22.5,,00.0,0653.7,30.9
2021-02-06T12:53:00Z,00000200,01000000,0000.73,0000.38,-000.17,0000.38,0000.22,-000.41,0000.34,0000.00,0000.06,15.9,22.5,,00.0,0653.7,30.9
2021-02-06T12:54:00Z,00000200,01000000,-000.17,0000.47,0000.08,0000.25,-000.08,-000.03,-000.07,0000.16,0000.06,15.9,22.6,,00.0,0653.7,30.9
2021-02-06T12:55:00Z,00000200,01000000,0000.99,0000.47,0000.18,-000.26,0000.44,0000.01,0000.31,-000.24,-000.05,15.9,22.5,,00.0,0653.7,30.9
2021-02-06T12:56:00Z,00000200,01000000,0000.54,0000.41,0000.08,0000.02,-000.20,0000.02,-000.11,0000.20,0000.14,15.9,22.5,,00.0,0653.8,30.9
2021-02-06T12:57:00Z,00000200,41000000,,,,,,,0000.33,0000.52,0000.27,15.9,22.6,,00.0,0653.7,30.9
2021-02-06T12:58:00Z,00000200,61000000,,,,,,,-000.18,-000.51,-000.17,15.4,22.6,,00.0,0652.8,30.8
2021-02-06T12:59:00Z,00000200,21000000,,,,,,,-000.36,-000.84,-000.56,15.4,22.8,,00.0,0652.8,30.8
